www.pogodaiklimat.ru

Архив погоды в Куглуктуке (Нунавут, Канада)

Время
(UTC), дата
13 10.07
14 10.07
15 10.07
16 10.07
17 10.07
18 10.07
19 10.07
20 10.07
21 10.07
22 10.07
23 10.07
00 11.07
01 11.07
02 11.07
03 11.07
04 11.07
05 11.07
06 11.07
07 11.07
08 11.07
09 11.07
10 11.07
11 11.07
12 11.07
13 11.07
14 11.07
15 11.07
17 11.07
18 11.07
19 11.07
20 11.07
21 11.07
22 11.07
23 11.07
00 12.07
01 12.07
02 12.07
03 12.07
04 12.07
05 12.07
06 12.07
07 12.07
08 12.07
09 12.07
10 12.07
11 12.07
12 12.07
13 12.07
14 12.07
15 12.07
16 12.07
17 12.07
18 12.07
19 12.07
20 12.07
21 12.07
22 12.07
23 12.07
00 13.07
01 13.07
02 13.07
03 13.07
04 13.07
05 13.07
06 13.07
07 13.07
08 13.07
09 13.07
10 13.07
11 13.07
12 13.07
13 13.07
14 13.07
15 13.07
16 13.07
17 13.07
18 13.07
19 13.07
20 13.07
21 13.07
22 13.07
23 13.07
00 14.07
01 14.07
02 14.07
03 14.07
04 14.07
05 14.07
06 14.07
07 14.07
08 14.07
09 14.07
10 14.07
11 14.07
12 14.07
13 14.07
14 14.07
15 14.07
16 14.07
17 14.07
18 14.07
19 14.07
20 14.07
21 14.07
22 14.07
23 14.07
00 15.07
01 15.07
02 15.07
03 15.07
04 15.07
05 15.07
06 15.07
07 15.07
08 15.07
09 15.07
10 15.07
11 15.07
12 15.07
13 15.07
14 15.07
15 15.07
16 15.07
17 15.07
18 15.07
19 15.07
20 15.07
21 15.07
22 15.07
23 15.07
00 16.07
01 16.07
02 16.07
03 16.07
04 16.07
05 16.07
06 16.07
07 16.07
08 16.07
09 16.07
10 16.07
11 16.07
12 16.07
13 16.07
14 16.07
15 16.07
16 16.07
17 16.07
18 16.07
19 16.07
20 16.07
21 16.07
22 16.07
23 16.07
00 17.07
01 17.07
02 17.07
03 17.07
05 17.07
06 17.07
07 17.07
08 17.07
09 17.07
10 17.07
11 17.07
12 17.07
Ветер
(напр.,м/с)
Видим. Явления Облачность Т
(С)
Тd
(С)
f
(%)
Тe
(С)
Тes
(С)
Комфортность P
(гПа)
Po
(гПа)
Тmin
(С)
Tmax
(С)
R
(мм)
R24
(мм)
S
(см)
З 5 н/о н/о +5.4 +3.4 87 +1 +1 1010.0 1007.2
СЗ 4 н/о н/о +5.7 +4.0 89 +2 +2 1010.0 1007.2
СЗ 4 24 км 10/10 200 м +6.2 +3.7 84 +2 +3 1010.4 1007.5
СЗ 6 н/о н/о +5.8 +3.5 85 +1 +2 1011.0 1008.2
СЗ 5 н/о н/о +6.8 +3.6 80 +3 +4 1012.0 1009.2
С 5 24 км {ливн. дождь, дождь} 9/9 200 м
[Cu Sc]
+8.2 +4.0 75 +5 +6 1011.6 1008.7 +4.5 +8.3 0.0 5.2
СЗ 7 24 км дождь 5 баллов +8.4 +3.4 71 +4 +6 1012.0 1009.2
С 7 н/о н/о +7.5 +5.1 85 +3 +4 1012.0 1009.2
С 7 24 км 8/8 300 м +9.3 +4.5 72 +5 +6 1012.8 1009.9
С 8 н/о н/о +10.0 +3.7 65 +6 +7 1014.0 1011.2
С 8 н/о н/о +9.6 +4.0 68 +6 +6 1014.0 1011.2
С 8 24 км {ливн. дождь} 5/4 600 м
[Cu hum]
+8.9 +3.5 69 +5 +5 1014.4 1011.5 +4.5 +10.1 0.0 0.8
С 5 н/о н/о +9.3 +3.5 67 +6 +8 1015.0 1012.2
СЗ 5 н/о н/о +9.3 +3.5 67 +6 +7 1016.0 1013.2
С 5 24 км 3/3 600 м +8.6 +3.2 69 +5 +6 1015.7 1012.8
СЗ 5 н/о н/о +7.5 +3.2 74 +4 +4 1016.0 1013.2
С 4 н/о н/о +6.9 +3.1 77 +3 +4 1016.0 1013.2
С 4 24 км 1/1 600 м
[Sc]
+5.6 +2.8 82 +2 +2 1016.9 1014.0 +4.5 +10.1 0.0 0.0
СЗ 3 24 км 5 баллов +4.0 +2.4 89 0 0 1018.0 1015.1
СЗ 3 24 км 7 баллов +3.9 +2.6 91 0 0 1018.0 1015.1
СЗ 4 24 км 9/9 300 м +4.0 +2.7 91 -1 -1 1018.1 1015.2
З 3 24 км 7 баллов +4.2 +3.0 92 0 0 1018.0 1015.1
З 4 24 км 10 баллов +4.4 +2.3 86 0 0 1018.0 1015.1
З 3 24 км 10/10 300 м
[St]
+4.7 +2.4 85 +1 +1 1018.3 1015.4 +3.6 +10.1 0.0
СЗ 4 24 км 10 баллов +4.9 +1.9 81 +1 +1 1018.0 1015.1
С 3 24 км 10 баллов +5.4 +2.2 80 +2 +2 1018.0 1015.1
С 2 24 км 9/9 300 м +6.0 +2.4 78 +4 +5 1018.4 1015.5
СЗ 1 24 км 5 баллов +8.8 +2.8 66 +8 +13 1018.0 1015.2
С 2 24 км 5/1 600 м
[Sc As trans Ci fib]
+10.2 +3.7 64 +9 +14 1017.9 1015.0 +3.6 +10.3 0.0
С 2 н/о н/о +11.3 +4.3 62 +10 +16 1018.0 1015.2
С 3 н/о н/о +12.5 +5.4 62 +11 +16 1018.0 1015.2
С 3 24 км 1/1 600 м +12.6 +5.5 62 +11 +16 1017.6 1014.7
В 4 н/о н/о +13.8 +5.9 59 +12 +15 1018.0 1015.2
В 5 н/о н/о +13.2 +4.6 56 +11 +13 1018.0 1015.2
В 4 24 км 5/0
[As trans Ci fib]
+13.4 +4.3 54 +12 +14 1017.5 1014.6 +3.6 +14.1 0.0
В 4 н/о н/о +13.2 +4.9 57 +12 +13 1018.0 1015.2
В 4 н/о н/о +13.7 +5.1 56 +12 +14 1018.0 1015.2
В 3 24 км 1/0 +13.4 +4.5 55 +12 +13 1017.5 1014.6
ЮВ 2 н/о н/о +12.7 +4.9 59 +12 +12 1018.0 1015.2
ЮВ 2 н/о н/о +11.6 +5.9 68 +11 +11 1018.0 1015.2
ЮВ 2 24 км ясно +11.3 +6.4 72 +10 +10 1017.9 1015.0 +3.6 +14.1
Ю 1 н/о н/о +9.8 +5.6 75 +9 +9 1018.0 1015.2
СЗ 2 н/о н/о +7.2 +6.5 95 +5 +5 1018.0 1015.2
С 1 24 км ясно +6.7 +6.0 95 +6 +6 1018.2 1015.3
С 1 н/о н/о +7.0 +6.1 94 +6 +6 1018.0 1015.2
штиль 0 н/о н/о +7.3 +5.8 90 +6 +7 1018.0 1015.2
С 1 24 км 1/0
[Cc]
+8.7 +6.1 84 +8 +9 1018.5 1015.6 +6.5 +14.1
С 1 н/о н/о +9.0 +6.1 82 +8 +10 1018.0 1015.2
С 2 н/о н/о +10.1 +5.5 73 +9 +11 1018.0 1015.2
С 2 24 км 6/6 1000 м +11.4 +6.5 72 +10 +12 1018.1 1015.2
С 3 н/о н/о +11.9 +6.4 69 +10 +12 1018.0 1015.2
В 4 н/о н/о +13.1 +5.0 58 +12 +13 1017.0 1014.2
В 4 24 км 9/1 1500 м
[Sc Ac As Cc]
+13.7 +4.8 55 +12 +14 1017.1 1014.2 +6.5 +14.3
СВ 4 н/о н/о +15.3 +4.1 47 +14 +17 1017.0 1014.2
В 5 н/о н/о +14.6 +3.4 47 +13 +15 1017.0 1014.2
В 5 24 км 9/9 1000 м +14.8 +3.0 45 +14 +15 1016.3 1013.4
В 4 н/о н/о +15.2 +5.4 52 +14 +16 1016.0 1013.2
В 6 н/о н/о +14.5 +5.3 54 +13 +14 1015.0 1012.2
В 6 24 км 8/1 1000 м
[Sc Ac As Cc]
+14.0 +4.6 53 +12 +13 1015.3 1012.4 +6.5 +15.9
В 6 н/о н/о +15.2 +4.8 50 +14 +14 1015.0 1012.2
В 6 н/о н/о +14.8 +5.3 53 +13 +14 1015.0 1012.2
В 4 24 км 3/0 +12.9 +5.6 61 +11 +12 1014.1 1011.2
С 4 н/о н/о +10.9 +6.1 72 +9 +9 1014.0 1011.2
С 3 н/о н/о +9.2 +5.9 80 +7 +7 1013.0 1010.2
С 3 24 км 1/0
[Ac trans Ci fib]
+8.8 +5.4 79 +6 +6 1013.1 1010.2 +6.5 +15.9
С 1 н/о н/о +9.1 +6.0 81 +9 +9 1013.0 1010.2
штиль 0 н/о н/о +7.2 +5.8 91 +6 +6 1013.0 1010.2
Ю 2 24 км 1/0 +6.5 +5.8 95 +4 +4 1012.2 1009.3
Ю 3 н/о н/о +7.3 +6.2 93 +4 +4 1012.0 1009.2
С 1 н/о н/о +8.9 +5.8 81 +8 +9 1012.0 1009.2
С 1 24 км 3/0
[Cc]
+9.8 +7.4 85 +9 +10 1011.6 1008.7 +6.2 +15.9
СЗ 1 н/о н/о +10.0 +7.2 83 +10 +11 1012.0 1009.2
С 2 н/о н/о +11.9 +8.2 78 +11 +13 1011.0 1008.2
С 2 24 км 1/1 600 м +15.0 +9.8 71 +15 +17 1011.0 1008.1
С 1 н/о н/о +18.3 +9.9 58 +20 +23 1011.0 1008.3
С 2 н/о н/о +19.7 +10.9 57 +22 +26 комфорт 1011.0 1008.3
В 3 24 км ясно +20.5 +10.3 52 +22 +29 комфорт 1010.1 1007.2 +6.2 +20.9
В 4 н/о н/о +20.1 +9.3 50 +21 +28 комфорт 1010.0 1007.3
В 4 н/о н/о +20.6 +7.6 43 +22 +25 комфорт 1010.0 1007.3
В 8 24 км 1/1 1500 м +20.9 +6.8 40 +22 +22 комфорт 1008.8 1005.9
В 8 н/о н/о +20.8 +6.3 39 +21 +22 комфорт 1009.0 1006.3
В 8 н/о н/о +21.8 +6.5 37 +23 +23 комфорт 1008.0 1005.3
В 6 24 км 1/1 1500 м
[Cu hum Ac cast Ci fib]
+21.0 +6.9 40 +22 +23 комфорт 1008.2 1005.3 +6.2 +22.1
В 4 н/о н/о +20.2 +7.9 45 +21 +23 комфорт 1008.0 1005.3
В 3 н/о н/о +21.8 +8.0 41 +23 +24 комфорт 1008.0 1005.3
ЮВ 3 24 км 4/0 +21.3 +7.9 42 +22 +23 комфорт 1007.6 1004.7
С 3 н/о н/о +13.7 +9.3 75 +13 +13 1008.0 1005.2
С 2 н/о н/о +13.1 +9.5 79 +12 +12 1008.0 1005.2
Ю 1 24 км осадки на расстоянии 4/1 2000 м
[Cu med, cong Ac cast]
+13.2 +9.4 78 +13 +13 1007.4 1004.5 +6.2 +22.1
З 2 н/о н/о +14.2 +9.6 74 +14 +14 1008.0 1005.3
Ю 5 н/о н/о +12.8 +9.2 79 +11 +11 1008.0 1005.2
Ю 4 24 км 5/0 +13.4 +9.3 76 +12 +12 1007.2 1004.3
Ю 4 н/о н/о +16.0 +9.9 67 +15 +15 1007.0 1004.3
ЮЗ 5 н/о н/о +16.4 +9.3 63 +16 +16 1007.0 1004.3
Ю 4 16 км слаб. ливневой дождь 10/4 1500 м
[Cu med, cong Ac cast]
+16.7 +10.3 66 +16 +16 1006.3 1003.5 +12.0 +22.1 0.0 0.0
Ю 5 н/о н/о +18.4 +10.2 59 +18 +19 1006.0 1003.3
Ю 7 н/о н/о +18.8 +9.8 56 +19 +19 1006.0 1003.3
ЮЗ 6 16 км 8/0 2000 м +21.4 +9.6 47 +23 +23 комфорт 1005.7 1002.9
ЮЗ 6 н/о н/о +22.4 +9.9 45 +24 +25 комфорт 1006.0 1003.3
ЮЗ 7 н/о н/о +23.0 +9.7 43 +25 +26 комфорт 1005.0 1002.3
ЮЗ 6 12 км 4/0 2000 м
[Ac cast Cs]
+24.3 +10.2 41 +25 +27 комфорт 1004.5 1001.7 +12.0 +24.5 0.0
Ю 7 н/о н/о +25.9 +11.6 41 +27 +29 жарко 1005.0 1002.4
З 6 н/о н/о +25.4 +11.5 42 +27 +28 жарко 1004.0 1001.4
З 5 19 км 9/9 1500 м +26.2 +11.5 40 +27 +29 жарко 1003.4 1000.6
З 7 н/о н/о +27.4 +10.6 35 +28 +29 жарко 1004.0 1001.4
З 7 н/о н/о +27.5 +11.1 36 +28 +29 жарко 1003.0 1000.4
ЮЗ 6 19 км 8/0 2000 м
[Ac cast Ci fib]
+27.2 +10.4 35 +28 +28 жарко 1002.9 1000.1 +12.4 +28.5 0.0
З 6 н/о н/о +27.8 +9.6 32 +28 +28 жарко 1003.0 1000.4
З 5 н/о н/о +27.5 +10.2 34 +28 +28 жарко 1003.0 1000.4
ЮЗ 4 19 км 4/0 2000 м +26.2 +10.3 37 +27 +27 жарко 1002.8 1000.0
Ю 4 н/о н/о +22.9 +11.3 48 +25 +25 комфорт 1003.0 1000.3
Ю 5 н/о н/о +21.2 +9.7 48 +23 +23 комфорт 1003.0 1000.3
Ю 6 24 км 8/0 2000 м
[Ac cast Ci sp]
+19.9 +8.9 49 +21 +21 комфорт 1003.0 1000.2 +12.4 +28.5 0.0
Ю 7 н/о н/о +18.7 +7.8 49 +18 +18 1003.0 1000.3
Ю 6 н/о н/о +17.8 +7.8 52 +17 +17 1003.0 1000.3
Ю 5 24 км 4/0 2000 м +16.8 +8.0 56 +16 +16 1003.4 1000.6
ЮЗ 4 н/о н/о +15.5 +8.2 62 +15 +15 1004.0 1001.3
ЮЗ 2 н/о н/о +16.2 +8.7 61 +16 +17 1004.0 1001.3
Ю 4 16 км ясно +15.8 +9.5 66 +15 +16 1003.6 1000.8 +15.1 +28.5
Ю 5 н/о н/о +18.8 +10.1 57 +19 +20 1003.0 1000.3
Ю 6 н/о н/о +20.1 +10.2 53 +21 +22 комфорт 1003.0 1000.3
Ю 7 19 км 5/5 1000 м +21.3 +10.1 49 +23 +23 комфорт 1003.1 1000.3
Ю 6 н/о н/о +22.1 +10.9 49 +24 +25 комфорт 1003.0 1000.3
ЮЗ 6 н/о н/о +21.8 +10.9 50 +24 +25 комфорт 1003.0 1000.3
Ю 3 8000 м дым н/о +22.2 +11.6 51 +24 +28 комфорт 1002.7 999.9 +15.1 +23.0
Ю 6 н/о н/о +25.1 +13.0 47 +27 +29 жарко 1003.0 1000.4
ЮЗ 7 н/о н/о +28.3 +12.2 37 +29 +31 жарко 1003.0 1000.4
Ю 8 9000 м 6/6 1000 м +29.1 +12.1 35 +30 +31 жарко 1002.0 999.2
ЮЗ 6 н/о н/о +28.9 +11.0 33 +29 +30 жарко 1002.0 999.4
ЮЗ 7 н/о н/о +28.9 +10.1 31 +29 +30 жарко 1002.0 999.4
З 6 4800 м дым 5/0
[Ac lent]
+28.5 +10.6 33 +29 +30 жарко 1001.7 998.9 +15.1 +29.9
З 6 н/о н/о +29.0 +10.1 31 +29 +30 жарко 1002.0 999.4
З 4 н/о н/о +27.7 +11.3 36 +29 +29 жарко 1002.0 999.4
З 4 2400 м 4/0 +26.2 +12.6 43 +28 +28 жарко 1001.8 999.0
ЮЗ 3 н/о н/о +24.0 +13.2 51 +26 +26 жарко 1002.0 999.4
Ю 3 н/о н/о +22.0 +14.1 61 +25 +25 комфорт 1002.0 999.3
Ю 4 2400 м дым 4/0
[Ac As]
+21.5 +13.4 60 +24 +24 комфорт 1001.8 999.0 +15.1 +29.9
Ю 4 н/о н/о +19.5 +12.7 65 +21 +21 комфорт 1002.0 999.3
ЮЗ 6 н/о н/о +18.8 +13.0 69 +19 +19 1003.0 1000.3
Ю 4 4000 м 5/0 +18.0 +12.4 70 +18 +18 1002.4 999.6
ЮЗ 5 н/о н/о +17.8 +12.7 72 +17 +17 1003.0 1000.3
ЮЗ 5 н/о н/о +17.6 +12.9 74 +17 +17 1003.0 1000.3
С 2 4800 м дым 5/0 2000 м
[Ac cast]
+16.7 +12.8 78 +17 +17 1003.5 1000.7 +16.7 +29.9
С 1 н/о н/о +18.2 +13.9 76 +20 +20 1004.0 1001.3
ЮВ 2 н/о н/о +17.4 +14.3 82 +18 +19 1005.0 1002.3
штиль 0 4800 м 5/0 +18.4 +13.9 75 +19 +22 1004.6 1001.8
В 2 н/о н/о +19.1 +13.7 71 +21 +24 комфорт 1005.0 1002.3
С 4 н/о н/о +20.7 +13.6 64 +23 +26 комфорт 1006.0 1003.3
С 3 6000 м дым 4/0 2000 м
[Ac As Ci fib]
+20.5 +13.2 63 +23 +27 комфорт 1005.3 1002.5 +16.6 +21.4
С 2 н/о н/о +21.9 +12.7 56 +24 +30 комфорт 1006.0 1003.3
С 3 н/о н/о +22.4 +12.6 54 +25 +29 комфорт 1006.0 1003.3
С 3 6000 м ясно +23.2 +12.8 52 +26 +30 жарко 1005.7 1002.9
СВ 4 н/о н/о +22.0 +13.1 57 +25 +28 комфорт 1006.0 1003.3
0 н/о н/о +21.8 +12.8 57 1006.1 1003.3
С 4 6000 м дым 8/0
[Ac As Ci]
+22.0 +13.6 59 +25 +27 комфорт 1006.2 1003.4 +16.6 +23.2
С 4 н/о н/о +20.4 +13.1 63 +23 +24 комфорт 1007.0 1004.3
СВ 3 н/о н/о +19.5 +13.7 69 +21 +22 комфорт 1007.0 1004.3
В 2 8000 м 5/0 +17.4 +13.7 79 +18 +18 1006.8 1003.9
В 2 13 км 7 баллов +14.7 +12.4 86 +14 +14 1007.0 1004.3
штиль 0 8000 м дым {дождь} 8/3 600 м
[Cu med, cong Ac cast Ci fib]
+13.7 +11.7 88 +13 +13 1007.2 1004.3 +13.7 +23.2 0.0 0.0
С 4 н/о н/о +12.6 +10.7 88 +11 +11 1008.0 1005.2
СВ 1 н/о н/о +11.1 +9.2 88 +11 +11 1008.0 1005.2
В 2 12 км 9/9 600 м +11.2 +9.1 87 +10 +10 1008.3 1005.4
С 4 н/о н/о +11.9 +9.5 85 +10 +10 1008.0 1005.2
С 4 н/о н/о +11.5 +9.6 88 +9 +9 1008.0 1005.2
С 4 16 км 10/0
[Ac lent]
+11.3 +9.6 89 +9 +9 1008.9 1006.0 +10.2 +23.2 0.0
Местоположение метеостанции Куглуктук (Нунавут, Канада): широта 67.82 долгота -115.10 высота над уровнем моря 22 м.
В архиве по умолчанию представлена погода в Куглуктуке за последнюю неделю. Архивные данные за месяц целиком и за предыдущие месяцы, начиная с января 2011 года, Вы можете получить, выбрав интересующий диапазон дат из раскрывающегося списка и нажав кнопку "Найти!".
*Определитесь, кто Вы:
Внимание! Время в таблицах - всемирное. Для получения местного времени необходимо прибавить поправку, которая равна -7 ч.
Некоторые строки с данными для отдельных станций могут быть выделены курсивом. Это означает, что фактические данные отсутствуют по различным причинам, а приведенные значения являются расчетными модельными данными для данного пункта наблюдений.
Смотрите также архив погоды в соседних городах и на ближайших метеорологических станциях:
Партнеры нашего сайта:      
Пояснения к столбцам:
  • Ветер - указаны скорость ветра в м/с - средняя за 10 мин, порывы в срок и между сроками (в фигурных скобках) и направление, откуда дует ветер: С - северный,
  • СВ - северо-восточный, В - восточный, ЮВ - юго-восточный, Ю - южный, ЮЗ - юго-западный, З - западный, СЗ - северо-западный.
  • Видимость - горизонтальная дальность видимости в метрах или километрах. При видимости от 1 до 10 км при отсутствии осадков обычно наблюдается дымка, при ухудшении видимости до 1 км и менее - туман. В сухую погоду видимость может ухудшаться дымом, пылью или мглою.
  • Явления - указаны атмосферные явления, наблюдавшиеся в срок или в последний час перед сроком; фигурными скобками обозначены явления, наблюдавшиеся между сроками (за 1-3 часа до срока); квадратными скобками обозначены град или гололедные отложения с указанием их диаметра в мм.
  • Облачность - указаны через наклонную черту общая и нижняя облачность в баллах и высота нижней границы облаков в метрах; квадратными скобками обозначены формы облаков: Ci - перистые, Cs - перисто-слоистые, Cc - перисто-кучевые, Ac - высококучевые, As - высокослоистые, Sc - слоисто-кучевые, Ns - слоисто-дождевые, Cu - кучевые, Cb - кучево-дождевые. Подробнее классификацию облаков см. в Атласе облаков (PDF).
  • T - Температура воздуха - температура, измеренная на высоте 2 м над землей.
  • Td - Температура точки росы - температура, при понижении до которой содержащийся в воздухе водяной пар достигнет насыщения.
  • f - Относительная влажность воздуха - влажноcть воздуха, измеренная на высоте 2 м над землей.
  • Te - Эффективная температура - температура, которую ощущает одетый по сезону человек в тени. Характеристика душности погоды. При расчете учитывается влияние влажности воздуха и скорости ветра на теплоощущения человека.
  • Tes - Эффективная температура на солнце - температура, которую ощущает человек, с поправкой на солнечный нагрев. Характеристика знойности погоды. Зависит от высоты солнца над горизонтом, облачности и скорости ветра. Ночью, в пасмурную погоду, а также при ветре 12 м/с и более поправка равна нулю.
  • P - Атмосферное давление - приведенное к уровню моря атмосферное давление.
  • Po - Атмосферное давление - измеренное на уровне метеостанции атмосферное давление.
  • Tmin - Минимальная температура - минимум температуры воздуха на высоте 2 м над землей.
  • Tmax - Максимальная температура - максимум температуры воздуха на высоте 2 м над землей.
  • R - Количество осадков - Количество выпавших осадков за период времени, мм. При наведении курсора мыши на число - период времени, за который выпало указанное количество осадков.
  • R24 - Количество осадков - Количество выпавших осадков за 24 часа, мм.
  • S - Снежный покров - Высота снежного покрова, см. При наведении курсора мыши на число - состояние снежного покрова и степень покрытия местности в баллах.